Home   Weather   Sarajevo   Past weeks

Flag for Bosnia-Herzegovina Past Weather in Sarajevo, Bosnia-Herzegovina — Yesterday and Last 2 Weeks

Now
61 °F

Clear.


Feels Like: 61 °F
Forecast: 61 / 86 °F
Wind: No wind

Location: Sarajevo / Butmir

Current Time: Jun 27, 2017 at 3:51:44 am

Latest Report: Jun 27, 2017 at 3:00 am


Visibility: 10 mi

Pressure: 29.98 "Hg (28.17 "Hg at 526m altitude)

Humidity: 94%

Dew Point: 59 °F

Location of SarajevoLocation

Past Weather in Sarajevo — Graph

°F

Sarajevo Temperature Yesterday

Maximum temperature yesterday: 81 °F (at 4:00 pm)
Minimum temperature yesterday: 66 °F (at 12:00 am)
Average temperature yesterday: 73 °F

High & Low Weather Summary for the Past Weeks

 TemperatureHumidityPressure
High91 °F (Jun 25, 2:00 pm)100% (Jun 12, 6:00 am)30.21 "Hg (Jun 12, 6:00 am)
Low48 °F (Jun 12, 5:00 am)24% (Jun 16, 12:30 pm)29.86 "Hg (Jun 25, 6:00 pm)
Average70 °F65%30.05 "Hg
* Reported Jun 12 2:00 am — Jun 27 2:00 am, Sarajevo. Weather by CustomWeather, © 2017

Note: Actual official high and low records may vary slightly from our data, if they occured in-between our weather recording intervals... More about our weather records

Advertising

Sarajevo Weather History for the Previous 24 Hours

Scroll right to see more
 ConditionsComfort  
Time TempWeatherWind HumidityBarometerVisibility
2:00 am
Tue, Jun 27
61 °FClear.3 mph94%29.98 "Hg10 mi
1:00 am63 °FClear.5 mph88%30.01 "Hg10 mi
12:00 am64 °FClear.1 mph88%30.01 "Hg10 mi
11:00 pm
Mon, Jun 26
68 °FClear.1 mph78%29.98 "Hg10 mi
10:30 pm68 °FClear.5 mph78%29.98 "Hg10 mi
10:00 pm70 °FClear.7 mph73%29.98 "Hg10 mi
9:30 pm72 °FClear.6 mph65%29.98 "Hg10 mi
9:00 pm73 °FPassing clouds.3 mph61%29.95 "HgN/A
8:30 pm73 °FPassing clouds.5 mph61%29.95 "HgN/A
8:00 pm77 °FPassing clouds.7 mph54%29.95 "HgN/A
7:30 pm77 °FPassing clouds.8 mph54%29.95 "HgN/A
7:00 pm79 °FScattered clouds.8 mph51%29.95 "HgN/A
6:30 pm79 °FScattered clouds.8 mph51%29.95 "HgN/A
6:00 pm79 °FScattered clouds.8 mph51%29.95 "HgN/A
5:30 pm81 °FScattered clouds.8 mph51%29.95 "HgN/A
5:00 pm79 °FScattered clouds.8 mph51%29.95 "HgN/A
4:30 pm81 °FScattered clouds.6 mph51%29.95 "HgN/A
4:00 pm81 °FScattered clouds.8 mph51%29.95 "HgN/A
3:30 pm79 °FScattered clouds.7 mph58%29.98 "HgN/A
3:00 pm79 °FPartly sunny.8 mph54%29.98 "HgN/A
2:30 pm77 °FPartly sunny.9 mph54%29.98 "HgN/A
2:00 pm79 °FScattered clouds.8 mph54%29.98 "HgN/A
1:30 pm79 °FScattered clouds.8 mph58%29.98 "HgN/A
1:00 pm79 °FScattered clouds.7 mph58%29.98 "HgN/A
12:30 pm77 °FScattered clouds.5 mph57%29.98 "HgN/A
12:00 pm77 °FScattered clouds.5 mph57%29.98 "HgN/A
11:30 am77 °FScattered clouds.6 mph61%29.98 "HgN/A
11:00 am75 °FScattered clouds.6 mph65%30.01 "HgN/A
10:30 am73 °FScattered clouds.7 mph74%30.01 "HgN/A
10:00 am73 °FScattered clouds.8 mph69%30.01 "HgN/A
9:30 am72 °FScattered clouds.9 mph73%30.01 "HgN/A
9:00 am70 °FScattered clouds.8 mph73%30.01 "HgN/A
8:30 am70 °FPassing clouds.7 mph73%29.98 "HgN/A
8:00 am68 °FScattered clouds.7 mph78%29.98 "HgN/A
7:30 am68 °FPassing clouds.5 mph83%29.98 "HgN/A
7:00 am66 °FPassing clouds.7 mph88%29.98 "HgN/A
6:30 am66 °FPassing clouds.6 mph88%29.95 "HgN/A
6:00 am66 °FSunny.6 mph88%29.95 "Hg10 mi
5:30 am66 °FSunny.6 mph94%29.95 "Hg10 mi
5:00 am68 °FPassing clouds.3 mph88%29.92 "HgN/A
4:00 am68 °FLight rain. Passing clouds.7 mph83%29.95 "HgN/A
3:00 am68 °FPartly cloudy.2 mph78%30.01 "HgN/A
Weather by CustomWeather, © 2017

See weather overviewHow to use our weather pages